COSMOS 1275 DEB, 42198

Orbit data source: Space-Track

COSMOS 1275 DEB, 42198 is space debris in LEO originally from a launch on Thu, 04 Jun 1981 UTC launched from the Plesetsk Missile And Space Complex (PKMTR). Debris objects in space refer to the collection of defunct objects orbiting the Earth. Examples of debris include non-operational satellites, rocket bodies, and fragments generated from explosions, collisions, or faulty payload assembly.

Loading next visibility...
Identifier
42198, 1981-053TN
Orbit
LEO
Country
Flag of CISCIS
Related business
Manufacturer
Unknown
Mission
Spacecraft
Bus & Motor
Unknown
Mass
Unknown
Launch date (UTC)
1981-06-04 (45 years ago)
Launch vehicle
Unknown
Launch site
Plesetsk Missile And Space Complex (PKMTR)
Object type
Payload
Rocket body
Debris
Shape & HBR
Unknown shape, 0.1 m
Radar Cross Section
Small (<0.1 m²)

Expand to show TLE details & history
Last TLE update: 2 months ago

TLE from 2 months ago
0 COSMOS 1275 DEB
1 42198U 81053TN  26185.45641808  .00000806  00000-0  62584-3 0  9991
2 42198  82.8009 263.6373 0036427 312.4295  47.3790 13.91144780639108
Epoch: 2026-07-04T10:57Z
TLE epoch observation values (Epoch: 2026-07-04T10:57:14.522Z)
Latitude
Longitude
176.85695°
Altitude
909.576 km
Speed
7.406 km/s
True Right ascension
17h 34m 32s
True Declination
0° 00' 00"
Sunlit
Object was in full shadow at epoch
Visualization orbit readout
Latitude
Unknown
Longitude
Unknown
Altitude
Unknown
Speed
Unknown
Apparent Right ascension
Unknown
Apparent Declination
Unknown
Sunlit
N/A
Visualization observer readout
Local Sidereal Time
02:30:38
Azimuth
Unknown
Elevation
Unknown
Doppler factor
Unknown
Orbital elements
Apogee altitude
948.345 km
Perigee altitude
895.162 km
Semi-major axis
7,299.891 km
Eccentricity
0.00364
Inclination
82.8009°
RAAN
263.6373°
Arg. of periapsis
312.4295°
True anomaly
47.68711°
Mean anomaly
47.379°
Eccentric anomaly
47.53296°
Mean motion
3.47991 °/min
Orbital period
103.45 mins
BSTAR
0.00062584
Loading maneuver chart data...
Computing Atmospheric mass density...

Documentation

Showing up to 5 results
|